EW6887 Weather Reports


time (UTC)temp
C
wind
direction
speed
KPH
gust
KPH
rain 1hr
cm
rain 24hr
cm
rain mn
cm
humidity
%
barometer
mb
20260504174513 22 99 0.0 0.0 0.00 0.00 0.00 45 1010.0
20260504173012 23 74 0.0 0.0 0.00 0.00 0.00 43 1009.9
20260504171556 23 74 0.0 0.0 0.00 0.00 0.00 42 1009.9
20260504081525 18 331 0.0 0.0 0.00 0.00 0.00 48 1012.9
20260504050024 13 346 0.0 0.0 0.00 0.00 0.00 52 1013.3
20260504044515 12 338 0.0 0.0 0.00 0.00 0.00 54 1013.0
20260504043009 12 341 0.0 0.0 0.00 0.00 0.00 54 1013.0
20260504041601 12 13 0.0 0.0 0.00 0.00 0.00 53 1013.0
20260504040051 13 325 0.0 0.0 0.00 0.00 0.00 52 1013.0
20260504034555 13 333 0.0 0.0 0.00 0.00 0.00 51 1013.0
20260504033008 13 315 0.0 0.0 0.00 0.00 0.00 49 1012.9
20260504031622 13 319 0.0 0.0 0.00 0.00 0.00 49 1012.9
20260504030112 13 329 0.0 0.0 0.00 0.00 0.00 49 1012.9
20260504024551 14 313 0.0 0.0 0.00 0.00 0.00 48 1013.1
20260504023047 14 342 0.0 0.0 0.00 0.00 0.00 48 1013.0
20260504021543 14 26 0.0 0.0 0.00 0.00 0.00 47 1012.9
20260504020032 14 12 0.0 0.0 0.00 0.00 0.00 47 1012.9
20260504014524 14 350 0.0 0.0 0.00 0.00 0.00 46 1013.0
20260504013030 14 328 0.0 0.0 0.00 0.00 0.00 47 1013.0
20260504011510 14 5 0.0 0.0 0.00 0.00 0.00 47 1012.9
20260504010001 14 324 0.0 0.0 0.00 0.00 0.00 46 1012.9
20260504004555 14 333 0.0 0.0 0.00 0.00 0.00 46 1012.8
20260504003050 15 336 0.0 0.0 0.00 0.00 0.00 45 1012.9
20260504001550 15 284 0.0 0.0 0.00 0.00 0.00 46 1013.0
20260504000051 15 311 0.0 0.0 0.00 0.00 0.00 46 1013.0
20260503234532 15 332 0.0 0.0 0.00 0.00 0.00 46 1013.1
20260503233029 15 336 0.0 0.0 0.00 0.00 0.00 46 1013.2
20260503231516 15 360 0.0 0.0 0.00 0.00 0.00 47 1013.2
20260503230007 15 329 0.0 0.0 0.00 0.00 0.00 47 1013.2
20260503224601 15 327 0.0 0.0 0.00 0.00 0.00 47 1013.3
20260503223052 15 320 0.0 0.0 0.00 0.00 0.00 47 1013.2
20260503221550 15 319 0.0 0.0 0.00 0.00 0.00 47 1013.3
20260503220043 16 277 0.0 0.0 0.00 0.00 0.00 48 1013.4
20260503214532 16 311 0.0 0.0 0.00 0.00 0.00 47 1013.4
20260503213024 16 320 0.0 0.0 0.00 0.00 0.00 46 1013.4
20260503211517 16 308 0.0 0.0 0.00 0.00 0.00 47 1013.4
20260503210011 16 309 0.0 0.0 0.00 0.00 0.00 47 1013.5
20260503204601 16 307 0.0 0.0 0.00 0.00 0.00 47 1013.5
20260503203052 17 314 0.0 0.0 0.00 0.00 0.00 46 1013.5
20260503201547 17 315 0.0 0.0 0.00 0.00 0.00 46 1013.5
20260503200040 17 298 0.0 0.0 0.00 0.00 0.00 45 1013.5
20260503194530 17 309 0.0 0.0 0.00 0.00 0.00 44 1013.5
20260503193021 17 303 0.0 0.0 0.00 0.00 0.00 43 1013.5
20260503191511 18 309 0.0 0.0 0.00 0.00 0.00 42 1013.5
20260503190002 18 319 0.0 0.0 0.00 0.00 0.00 40 1013.4
20260503184605 19 323 0.0 0.0 0.00 0.00 0.00 39 1013.3
20260503183050 19 316 0.0 0.0 0.00 0.00 0.00 38 1013.1
20260503181534 20 342 0.0 0.0 0.00 0.00 0.00 35 1012.9
20260503180031 20 351 0.0 0.0 0.00 0.00 0.00 35 1012.8